Location: Eexterzandvoort
(53.0303°N, 6.7884°E)
Time: 20:01:41
(UTC+00:00)

Cosmos 2082 Rocket - Pass Details

Date: 19 May 2025
Orbit: 832 x 853 km, 71.0° (Epoch: 20 June)

Event Time Altitude Azimuth Distance (km) Brightness Sun altitude
Exits shadow 21:41:47 15° 181° (S) 2,076 3.7 -13.4°
Maximum altitude 21:46:07 48° 112° (ESE) 1,080 2.5 -13.6°
Drops below altitude 10° 21:51:30 10° 39° (NE) 2,459 5.0 -14.0°
Sets 21:54:01 0° 34° (NE) 3,400 5.8 -14.1°
